TKSAT-1 (TUPAC KATARI)

Last updated on Fri Dec 19 2025 00:02:51 GMT+0000 (Coordinated Universal Time)

1 39481U 13075A 25352.60803494 -.00000170 00000+0 00000+0 0 9999 2 39481 0.0452 206.2383 0003308 79.8795 293.0485 1.00271490 43799
UTC large
Height (km)
Speed (km/s)
/
Latitude / Longitude
Inclination (degrees)
Orbital Period (minutes)
Azimuth
Elevation
Range (km)
Doppler Factor

Next 0 passes for location: London (51.5072 / 0.1276)

Sorry there are no passes over London.